LKKV Weather Reports


time (UTC)temp
C
wind
direction
speed
KPH
gust
KPH
rain 1hr
cm
rain 24hr
cm
rain mn
cm
humidity
%
barometer
mb
20260507120212 10 280 16.1 0.0 0.00 0.00 0.00 87 1012.0
20260507115509 10 280 16.1 0.0 0.00 0.00 0.00 87 1012.0
20260507114603 11 280 20.9 0.0 0.00 0.00 0.00 76 1012.0
20260507113209 11 280 20.9 0.0 0.00 0.00 0.00 81 1012.0
20260507111624 12 280 14.5 0.0 0.00 0.00 0.00 76
20260507111603 11 270 16.1 0.0 0.00 0.00 0.00 81 1011.0
20260507110213 12 260 14.5 0.0 0.00 0.00 0.00 76 1011.0
20260507105103 12 240 12.9 0.0 0.00 0.00 0.00 76 1011.0
20260507103210 12 230 14.5 0.0 0.00 0.00 0.00 76 1011.0
20260507101903 12 230 14.5 0.0 0.00 0.00 0.00 76 1011.0
20260507101823 11 250 14.5 0.0 0.00 0.00 0.00 81
20260507100211 11 240 12.9 0.0 0.00 0.00 0.00 81 1011.0
20260507095102 11 240 12.9 0.0 0.00 0.00 0.00 81 1011.0
20260507093209 10 240 11.3 0.0 0.00 0.00 0.00 87 1011.0
20260507091622 8 230 11.3 0.0 0.00 0.00 0.00 93
20260507091303 10 240 11.3 0.0 0.00 0.00 0.00 87 1011.0
20260507090212 8 230 12.9 0.0 0.00 0.00 0.00 93 1011.0
20260507085802 10 230 14.5 0.0 0.00 0.00 0.00 87 1011.0
20260507084403 10 240 12.9 0.0 0.00 0.00 0.00 87 1011.0
20260507083803 10 240 12.9 0.0 0.00 0.00 0.00 87 1011.0
20260507083210 10 240 12.9 0.0 0.00 0.00 0.00 87 1011.0
20260507081622 10 240 11.3 0.0 0.00 0.00 0.00 93
20260507080903 10 230 11.3 0.0 0.00 0.00 0.00 87 1010.0
20260507080211 11 240 12.9 0.0 0.00 0.00 0.00 87 1010.0
20260507075202 10 240 11.3 0.0 0.00 0.00 0.00 87 1010.0
20260507073304 10 240 9.7 0.0 0.00 0.00 0.00 93 1010.0
20260507071623 10 240 11.3 0.0 0.00 0.00 0.00 87
20260507071402 10 230 11.3 0.0 0.00 0.00 0.00 87 1010.0
20260507070213 10 240 12.9 0.0 0.00 0.00 0.00 87 1010.0
20260507064302 8 240 11.3 0.0 0.00 0.00 0.00 93 1010.0
20260507063210 10 250 12.9 0.0 0.00 0.00 0.00 93 1010.0
20260507061623 8 250 11.3 0.0 0.00 0.00 0.00 99
20260507061511 10 240 12.9 0.0 0.00 0.00 0.00 93 1009.0
20260507060212 8 240 11.3 0.0 0.00 0.00 0.00 93 1009.0
20260507055704 8 250 12.9 0.0 0.00 0.00 0.00 100 1009.0
20260507051622 8 220 8.0 0.0 0.00 0.00 0.00 99
20260507050211 8 210 8.0 0.0 0.00 0.00 0.00 100 1009.0
20260507044511 8 220 8.0 0.0 0.00 0.00 0.00 100 1008.0
20260507041824 10 220 11.3 0.0 0.00 0.00 0.00 93
20260507040210 10 220 9.7 0.0 0.00 0.00 0.00 93 1008.0
20260507031623 10 240 8.0 0.0 0.00 0.00 0.00 93
20260507031603 10 230 9.7 0.0 0.00 0.00 0.00 93 1008.0
20260507030217 10 230 9.7 0.0 0.00 0.00 0.00 93 1008.0
20260507021621 10 230 8.0 0.0 0.00 0.00 0.00 93
20260507020217 10 230 9.7 0.0 0.00 0.00 0.00 93 1008.0
20260507011722 10 230 8.0 0.0 0.00 0.00 0.00 93
20260507010219 10 0 3.2 0.0 0.00 0.00 0.00 93 1008.0
20260507005403 10 0 3.2 0.0 0.00 0.00 0.00 93 1008.0
20260507003903 10 0 3.2 0.0 0.00 0.00 0.00 93 1007.0
20260507001902 10 210 3.2 0.0 0.00 0.00 0.00 93 1008.0
20260507001622 10 260 3.2 0.0 0.00 0.00 0.00 93
20260507000212 10 270 8.0 0.0 0.00 0.00 0.00 93 1007.0
20260506231623 10 300 8.0 0.0 0.00 0.00 0.00 93
20260506230218 10 0 1.6 0.0 0.00 0.00 0.00 93 1007.0
20260506221822 10 220 8.0 0.0 0.00 0.00 0.00 99
20260506220217 10 210 8.0 0.0 0.00 0.00 0.00 100 1007.0
20260506212103 11 210 11.3 0.0 0.00 0.00 0.00 93 1007.0
20260506211623 10 230 11.3 0.0 0.00 0.00 0.00 99
20260506210903 10 190 9.7 0.0 0.00 0.00 0.00 100 1007.0
20260506210211 10 170 3.2 0.0 0.00 0.00 0.00 100 1007.0
20260506201622 10 240 8.0 0.0 0.00 0.00 0.00 99
20260506200217 11 0 3.2 0.0 0.00 0.00 0.00 93 1006.0
20260506191622 12 40 3.2 0.0 0.00 0.00 0.00 76
20260506190224 12 80 4.8 0.0 0.00 0.00 0.00 76 1006.0
20260506183217 13 120 22.5 41.8 0.00 0.00 0.00 67 1005.0
20260506182717 13 120 24.1 41.8 0.00 0.00 0.00 67 1005.0
20260506181623 15 360 3.2 0.0 0.00 0.00 0.00 67
20260506180218 15 10 4.8 0.0 0.00 0.00 0.00 67 1005.0
20260506175602 15 20 4.8 0.0 0.00 0.00 0.00 67 1005.0
20260506173210 16 40 4.8 0.0 0.00 0.00 0.00 59 1005.0
20260506172602 16 20 4.8 0.0 0.00 0.00 0.00 59 1005.0
20260506171622 16 330 8.0 0.0 0.00 0.00 0.00 59
20260506170212 16 360 4.8 0.0 0.00 0.00 0.00 59 1005.0
20260506163210 16 360 4.8 0.0 0.00 0.00 0.00 59 1005.0
20260506161823 17 320 11.3 0.0 0.00 0.00 0.00 55
20260506160219 17 300 11.3 0.0 0.00 0.00 0.00 55 1005.0
20260506153210 17 300 9.7 0.0 0.00 0.00 0.00 55 1005.0
20260506151623 17 360 8.0 0.0 0.00 0.00 0.00 55
20260506150217 17 0 4.8 0.0 0.00 0.00 0.00 55 1006.0
20260506143217 16 300 9.7 0.0 0.00 0.00 0.00 59 1006.0
20260506141623 17 300 11.3 0.0 0.00 0.00 0.00 55
20260506140218 17 290 11.3 0.0 0.00 0.00 0.00 55 1006.0
20260506133217 17 0 3.2 0.0 0.00 0.00 0.00 51 1006.0
20260506131623 17 260 11.3 0.0 0.00 0.00 0.00 55
20260506130212 17 280 8.0 0.0 0.00 0.00 0.00 55 1006.0
20260506123209 16 280 4.8 0.0 0.00 0.00 0.00 59 1006.0
20260506121623 16 250 8.0 0.0 0.00 0.00 0.00 59